Location: Oak Glen
(34.0495°N, 116.9470°E)
Time: 02:12:06
(UTC-08:00)

Vanguard 2 Rocket - Visible Passes

Search period start: 14 December 2017 00:00
Search period end: 24 December 2017 00:00
Orbit: 556 x 3326 km, 32.9° (Epoch: 13 December)

Date Brightness Start Highest point End Pass type
(mag) Time Alt. Az. Time Alt. Az. Time Alt. Az.
14 Dec 9.0 03:09:02 10° WSW 03:20:27 70° SSE 03:28:01 41° E visible
14 Dec 9.4 05:22:48 10° W 05:33:49 63° W 05:33:49 63° W visible
14 Dec 10.8 07:38:34 10° W 08:20:20 - ESE 07:39:37 13° W visible
14 Dec 10.4 10:26:09 20° SSE 10:26:09 20° SSE 10:29:55 10° SSE visible
14 Dec 10.5 12:31:57 11° SW 12:31:57 11° SW 12:34:01 10° SW visible
15 Dec 8.9 02:10:12 10° SW 02:19:53 57° SSE 02:31:47 20° E visible
15 Dec 9.0 04:22:56 10° W 04:36:15 85° S 04:37:36 80° ESE visible
15 Dec 10.2 06:37:49 10° W 06:43:24 30° W 06:43:24 30° W visible
15 Dec 10.8 09:30:00 12° SE 09:30:00 12° SE 09:30:36 10° SE visible
15 Dec 10.4 11:35:48 17° SSW 11:35:48 17° SSW 11:39:54 10° S visible
16 Dec 9.0 01:11:54 10° SSW 01:19:58 42° SE 01:33:29 10° E visible
16 Dec 8.9 03:23:29 10° WSW 03:34:53 79° SSE 03:41:21 47° E visible
16 Dec 9.5 05:37:31 10° W 05:47:09 55° W 05:47:09 55° W visible
16 Dec10.908:33:48SE08:33:48SE07:52:57WNWvisible
16 Dec 10.5 10:39:36 16° S 10:39:36 16° S 10:42:27 10° SSE visible
17 Dec 8.7 02:24:27 10° WSW 02:34:06 69° SSE 02:45:07 25° E visible
17 Dec 9.0 04:37:37 10° W 04:50:55 87° S 04:50:55 87° S visible
17 Dec 10.4 06:52:30 10° W 06:56:43 24° W 06:56:43 24° W visible
17 Dec 10.8 09:43:21 11° SSE 09:43:21 11° SSE 09:43:42 10° SSE visible
18 Dec 8.7 01:25:49 10° SW 01:33:57 55° SSE 01:48:18 10° E visible
18 Dec 8.8 03:38:07 10° W 03:49:29 85° S 03:54:41 54° E visible
18 Dec 9.6 05:52:13 10° W 06:00:29 47° W 06:00:29 47° W visible
18 Dec11.008:47:02SE08:47:02SE08:06:18WNWvisible
18 Dec 10.7 10:52:50 12° S 10:52:50 12° S 10:53:48 10° S visible
19 Dec 8.6 02:38:56 10° WSW 02:48:35 79° SSE 02:58:28 29° E visible
19 Dec 9.0 04:52:19 10° W 05:04:17 79° WSW 05:04:17 79° WSW visible
19 Dec 10.5 07:07:13 10° W 07:10:04 19° W 07:10:04 19° W visible
20 Dec 8.5 01:40:07 10° WSW 01:48:14 69° SSE 02:02:17 12° E visible
20 Dec 8.8 03:52:48 10° W 04:04:11 86° S 04:08:05 62° E visible
20 Dec 9.8 06:06:55 10° W 06:13:53 39° W 06:13:53 39° W visible
20 Dec11.209:00:02SSE09:00:02SSE08:19:41WNWvisible
21 Dec 8.6 02:53:35 10° W 03:03:12 85° S 03:11:54 33° E visible
21 Dec 9.1 05:07:02 10° W 05:17:42 68° WSW 05:17:42 68° WSW visible
21 Dec 10.7 07:22:06 10° W 07:23:31 14° W 07:23:31 14° W visible
22 Dec 8.3 01:54:38 10° WSW 02:02:44 79° SSE 02:15:47 14° E visible
22 Dec 8.8 04:07:30 10° W 04:18:52 83° S 04:21:34 68° ESE visible
22 Dec 10.0 06:21:40 10° W 06:27:23 32° W 06:27:23 32° W visible
23 Dec 8.5 03:08:16 10° W 03:17:54 86° S 03:25:30 38° E visible
23 Dec 9.3 05:21:45 10° W 05:31:18 57° WSW 05:31:18 57° WSW visible
